Theta_e
321 321 320 320 319 320 321 321 319 319 321 322 321 321 321 320 320 320 320 320 319 320 320 320 319 319 319 321 322 322 321 321 320 320 319 320 321 322 321 320 319 318 316 315 314 313 312 313 314 315 315 313 311 310 309 309 307 307 307 307 307 307 306 305 305 305 304 304 305
320 320 319 316 316 319 321 320 319 320 320 321 321 321 321 320 320 319 319 319 319 320 320 320 319 319 319 321 322 322 321 320 319 319 319 320 321 322 322 321 319 317 315 314 313 313 313 313 313 314 314 313 311 310 309 308 308 307 306 306 307 307 306 306 306 305 304 304 304
320 320 319 319 319 320 321 321 321 320 321 321 321 321 321 320 319 319 319 319 319 320 320 320 319 319 319 320 322 322 321 320 319 319 319 319 321 321 322 322 319 316 314 313 313 313 313 313 312 312 311 311 310 309 308 307 306 306 306 305 307 307 307 306 306 305 305 305 303
321 320 320 320 320 320 321 321 321 321 321 321 321 321 321 321 319 319 319 319 319 320 321 321 320 319 318 318 320 321 320 319 319 319 319 320 320 321 321 321 318 316 314 313 313 314 314 313 312 311 311 310 309 309 309 308 306 306 307 306 307 307 307 307 306 306 305 305 303
321 320 320 320 320 321 321 321 321 321 321 321 321 321 321 321 320 319 318 318 319 320 322 323 321 320 318 317 319 319 320 319 317 319 321 321 321 321 320 319 317 315 314 313 314 314 314 313 313 312 311 310 309 309 309 308 306 306 307 307 306 307 307 307 306 306 305 305 304
320 320 320 320 321 321 321 321 322 322 322 321 321 320 320 321 321 319 319 318 319 320 322 321 320 319 317 317 318 319 320 321 320 321 322 322 321 321 319 317 315 314 314 313 313 313 314 313 313 312 311 310 310 309 309 307 307 307 307 307 307 307 306 306 306 305 304 304 303
321 321 320 320 321 321 321 321 321 322 322 321 320 320 320 320 320 320 319 319 320 320 320 319 320 319 318 317 318 319 320 321 321 322 322 322 321 320 318 316 314 313 313 313 313 313 313 313 312 312 310 309 310 309 308 307 307 307 307 307 307 307 306 306 305 304 304 303 303
321 321 321 321 321 321 321 321 321 321 321 321 320 320 320 320 320 319 320 320 320 319 319 319 321 321 320 318 318 319 320 321 321 321 321 321 320 319 317 315 314 313 313 313 313 312 312 312 312 312 311 310 310 309 308 307 307 307 307 307 307 307 307 306 306 305 304 303 302
321 321 321 321 321 321 321 321 321 321 321 320 320 320 320 320 320 320 320 320 319 319 319 320 321 321 320 319 318 318 319 320 320 320 320 319 318 317 316 314 314 313 313 313 312 312 312 312 312 312 312 311 311 310 309 307 307 307 307 307 307 306 306 307 306 305 304 303 302
320 320 321 321 321 321 320 321 320 320 320 320 320 320 318 316 317 319 319 320 319 319 319 320 320 320 320 319 318 318 319 319 319 319 318 317 316 315 315 314 313 313 313 313 312 312 311 312 312 312 312 312 311 310 309 308 307 307 307 308 307 306 306 306 305 305 304 304 303
319 320 320 320 320 320 320 320 320 320 320 320 320 319 318 316 318 319 318 319 319 320 320 320 320 320 319 318 318 317 318 318 318 317 316 316 315 314 314 314 313 313 313 313 313 312 312 312 312 312 312 312 311 310 309 308 307 307 307 308 307 306 306 305 306 305 305 305 304
319 319 319 320 320 320 320 320 319 319 319 320 320 319 319 319 320 319 318 318 318 319 320 320 319 319 318 318 317 317 316 317 316 316 315 315 314 314 314 314 313 313 313 313 313 313 312 312 312 312 311 311 311 311 310 308 307 307 307 307 307 307 306 306 306 306 306 306 304
319 319 319 319 319 319 320 319 319 319 319 319 319 319 319 319 319 319 319 319 318 319 319 320 320 319 318 317 317 316 316 316 315 314 314 313 313 313 313 313 313 313 313 313 313 313 313 312 312 311 311 311 311 311 310 308 308 307 307 307 307 307 307 307 306 306 306 306 305
319 319 319 318 318 318 319 318 319 319 319 319 319 319 319 319 319 319 319 319 318 319 319 319 319 319 318 318 317 316 315 314 314 313 313 312 312 312 313 313 313 313 312 313 313 312 312 312 312 311 311 311 310 310 310 309 308 308 307 307 307 307 307 307 307 307 306 306 305
319 318 318 318 318 318 318 318 318 318 319 319 319 319 319 319 319 319 319 320 319 319 319 319 318 318 318 318 317 315 314 314 313 312 312 311 312 312 312 312 312 312 312 312 312 312 312 312 312 311 311 310 310 310 309 309 309 308 308 308 308 308 308 307 307 307 306 306 306
318 318 318 318 318 318 318 318 318 318 318 319 319 319 320 320 319 319 319 320 319 319 319 318 318 318 318 316 316 315 314 314 313 313 312 311 311 312 312 312 312 312 312 312 312 312 312 311 311 311 311 311 310 310 310 309 309 309 308 308 308 308 308 308 308 307 307 307 306
318 318 318 318 317 317 317 318 318 318 318 318 319 319 319 320 319 318 317 318 318 318 318 317 317 317 317 315 315 315 314 314 313 313 312 312 312 312 312 312 312 312 312 312 312 312 311 311 311 311 311 311 310 310 310 310 309 309 309 309 309 309 308 308 308 308 308 307 307
318 318 318 318 317 317 317 317 318 318 318 318 319 319 320 320 319 318 317 317 318 318 317 316 316 316 316 315 315 315 314 314 314 314 313 313 313 312 312 312 312 312 312 312 312 312 311 311 311 311 311 311 311 311 311 310 310 310 310 309 309 309 309 308 309 309 309 308 307
317 317 318 318 317 317 317 316 317 317 318 318 319 319 319 318 318 318 317 318 317 317 316 316 316 316 315 315 315 314 313 314 314 314 313 313 313 313 313 313 312 312 312 312 312 312 312 312 311 311 311 311 311 311 311 310 310 310 310 310 310 310 309 309 309 309 309 309 308
317 317 317 318 318 317 317 317 317 317 317 318 318 318 318 318 317 317 317 317 316 316 316 315 315 315 315 315 315 314 314 314 314 314 314 314 314 313 313 313 313 313 313 313 312 312 312 312 312 312 311 311 311 311 311 311 311 311 311 311 310 310 310 310 310 309 309 309 308
318 318 318 318 318 318 317 318 317 317 317 317 317 317 317 317 316 316 316 316 315 316 316 315 315 315 314 314 314 314 314 314 314 314 314 314 314 314 314 313 314 314 314 313 313 313 313 312 312 312 311 311 311 311 311 311 311 311 311 311 311 311 311 310 310 310 309 309 309
317 318 318 318 318 318 318 318 318 317 317 316 316 316 316 316 315 315 315 315 315 315 315 315 315 314 314 314 313 314 313 314 314 314 314 314 313 313 314 314 314 314 314 314 314 313 313 313 313 312 312 312 311 311 311 311 311 311 311 311 311 311 311 311 311 310 310 310 309
318 318 318 319 318 317 317 318 318 317 316 315 315 315 315 315 315 315 315 315 314 314 314 314 314 314 314 313 313 313 313 313 313 313 314 314 314 314 314 314 314 314 314 314 314 314 314 314 313 313 313 312 312 311 311 311 311 311 311 311 311 311 311 311 311 311 311 311 310
318 318 318 319 318 318 318 318 318 317 316 315 315 315 315 315 314 314 314 314 314 314 314 314 314 314 314 314 313 313 312 313 312 313 313 313 314 314 314 314 314 314 314 314 314 313 313 313 314 314 313 313 313 312 312 312 311 311 311 311 311 311 311 311 311 311 311 311 311
318 318 318 319 319 318 318 318 318 317 316 316 315 315 315 314 314 314 313 313 313 313 314 314 314 314 314 313 313 313 313 312 312 312 312 313 313 314 314 314 314 314 314 313 308 305 305 307 311 313 314 314 314 313 313 312 312 312 312 311 311 311 311 311 311 311 311 311 311
318 318 318 318 318 318 318 318 318 317 317 317 316 316 315 315 315 314 313 312 313 313 314 314 314 313 312 314 313 313 313 313 313 312 312 312 313 313 313 314 314 315 314 310 304 302 301 302 304 307 311 315 314 314 313 313 312 312 312 312 311 311 311 311 311 311 311 310 310
317 317 318 318 318 318 318 318 318 317 317 317 316 316 316 315 315 314 313 312 312 313 314 314 314 312 311 314 313 313 313 313 313 313 313 312 312 313 313 314 314 314 313 307 303 300 299 299 299 301 305 313 314 314 314 313 313 312 311 311 311 311 310 310 310 310 309 309 309
316 316 317 317 317 317 317 317 317 317 317 317 317 316 316 316 315 314 313 312 312 313 314 314 314 313 313 314 314 313 313 313 313 313 313 313 312 312 313 313 314 313 310 304 301 299 298 298 298 298 299 302 309 312 313 312 312 311 311 311 310 310 310 310 310 309 309 309 308
314 315 315 316 316 316 317 317 316 317 317 316 316 316 316 316 315 314 313 312 312 312 313 314 314 314 314 314 314 314 313 313 314 313 313 313 313 313 313 313 313 311 306 300 299 297 297 296 296 296 296 297 302 307 311 312 312 312 312 311 309 307 307 307 307 305 304 303 303
313 313 313 314 314 315 315 316 316 316 316 316 316 316 316 316 315 314 312 311 311 312 313 314 314 314 313 313 314 314 314 314 314 314 314 313 313 313 313 312 313 311 305 296 296 297 296 293 292 291 292 293 296 302 307 311 312 312 309 305 300 299 298 298 296 295 295 296 297
313 313 312 312 312 313 313 314 315 315 315 315 315 315 315 315 314 313 312 311 311 311 312 313 313 313 313 313 313 314 313 314 314 314 314 313 312 312 313 313 313 308 299 291 292 293 292 291 291 290 291 292 295 300 306 310 311 308 302 296 294 293 293 293 292 291 291 292 293
314 313 313 311 311 311 311 312 313 313 314 314 314 314 314 314 313 312 311 310 311 311 312 313 313 313 313 312 313 312 313 313 313 313 313 313 313 313 313 314 309 299 291 291 291 291 291 291 291 291 291 292 296 302 308 309 306 300 295 292 291 291 291 291 290 290 290 290 291
314 314 313 313 311 311 310 310 311 311 311 311 312 312 312 312 312 311 311 310 311 312 313 313 313 313 312 312 312 312 312 312 312 311 310 310 312 313 312 309 299 293 291 291 291 291 291 291 291 291 292 293 299 306 308 304 299 295 292 291 290 290 289 289 289 289 289 289 290
314 313 313 313 312 312 311 310 309 309 310 310 310 311 311 311 310 310 310 310 311 312 313 313 313 313 314 315 314 313 312 310 310 308 307 307 309 307 303 296 294 292 291 291 291 290 290 291 291 291 292 295 301 302 301 297 295 293 291 289 289 289 288 288 288 288 288 288 288
314 314 313 313 313 313 312 311 310 309 309 309 309 309 310 310 310 310 310 309 310 312 313 314 314 314 315 315 311 307 304 301 299 297 297 298 298 296 294 293 292 291 290 291 290 290 290 291 291 292 294 297 299 298 296 294 292 291 290 288 288 287 287 287 287 287 287 287 287
314 313 313 312 313 313 313 312 311 311 310 309 309 309 310 310 310 311 310 309 310 312 313 314 314 314 310 303 298 296 295 295 295 294 294 294 294 294 293 292 291 291 290 291 290 290 291 291 291 292 295 299 298 296 294 292 291 289 288 287 287 286 286 286 286 286 286 286 286
314 314 313 313 313 313 313 313 313 312 311 310 310 310 311 311 311 311 311 310 311 312 313 314 313 307 300 295 293 292 292 292 292 292 292 292 292 292 292 291 291 290 290 291 291 291 291 291 292 294 296 298 296 294 292 291 289 288 287 286 285 285 285 285 285 285 285 285 285
315 314 314 313 313 313 313 313 313 312 312 312 312 312 312 312 313 312 312 310 312 314 314 313 304 298 294 292 291 290 289 289 289 289 289 289 289 289 290 290 290 290 290 291 291 291 291 292 293 294 296 296 294 293 291 290 288 287 285 284 284 284 284 284 284 285 285 285 285
315 315 314 313 313 313 313 313 313 313 313 313 313 312 313 313 313 313 312 311 314 314 310 304 297 294 293 291 290 289 288 287 287 287 287 287 287 287 288 288 289 290 290 291 291 292 292 293 294 294 295 294 293 292 290 289 287 285 284 283 283 283 283 283 283 283 284 284 285
315 315 314 314 313 314 313 313 313 313 313 313 313 313 313 313 312 312 313 312 311 307 301 296 294 292 291 290 289 288 286 285 285 285 285 286 286 287 287 287 288 289 290 291 292 292 293 293 294 294 294 293 293 291 290 288 286 284 283 283 282 282 282 282 283 283 283 283 284
315 315 315 314 314 314 314 313 314 314 314 313 313 313 312 311 313 313 311 307 302 298 296 294 292 291 289 288 287 286 284 284 284 284 285 285 285 286 286 286 287 288 289 290 291 291 292 293 293 293 293 293 292 291 289 287 285 284 283 282 282 282 281 281 281 282 282 282 282
Wind_Speed
8 8 8 8 8 7 7 6 5 6 8 10 10 10 11 12 13 12 10 8 8 8 8 8 8 9 10 15 15 14 12 12 13 14 14 14 11 9 9 11 13 14 14 14 12 11 10 10 8 6 6 6 7 8 7 7 8 8 8 8 8 8 9 10 10 11 11 10 9
9 9 9 8 7 7 6 6 6 6 7 7 8 8 9 11 12 11 10 9 9 9 9 9 9 10 11 16 15 14 13 12 13 14 15 15 13 11 10 10 13 15 15 15 13 11 9 9 8 7 6 6 7 7 7 7 8 8 9 10 8 7 8 9 10 11 11 10 9
10 9 9 9 8 8 7 7 7 8 8 6 6 6 7 8 9 9 9 9 10 10 9 9 10 10 11 15 15 14 13 13 13 14 14 15 15 14 13 13 15 16 15 13 12 11 9 9 8 8 7 7 7 7 7 6 7 7 9 10 8 7 7 7 8 9 8 8 8
10 10 9 9 10 10 9 8 9 9 9 7 7 6 5 4 5 6 7 10 11 10 8 9 9 9 9 12 15 15 14 12 12 12 13 14 16 17 18 18 18 16 14 13 12 11 10 9 8 7 7 8 8 8 7 6 6 6 7 8 6 6 7 7 7 6 6 7 7
11 10 9 9 10 10 10 9 10 10 9 7 7 6 5 3 2 4 6 9 9 8 8 9 9 7 7 9 14 15 14 13 12 11 12 13 16 18 20 21 18 15 13 12 12 12 11 10 7 6 7 7 7 7 7 7 7 7 6 5 5 6 6 6 6 6 6 6 6
11 11 10 9 9 9 9 9 11 11 9 8 9 8 6 4 3 4 6 8 9 9 9 10 8 7 6 8 13 14 14 12 11 11 12 14 16 18 20 20 16 14 12 12 12 12 12 10 8 7 6 6 6 7 7 7 7 7 6 5 5 5 5 6 5 5 5 6 7
11 12 11 10 10 9 9 10 10 10 10 10 11 11 9 6 5 6 7 9 9 9 8 8 9 8 7 8 12 13 13 12 12 13 15 15 17 19 19 16 14 13 12 12 12 12 12 12 9 7 6 5 5 6 7 7 7 7 7 7 6 5 5 6 5 5 6 8 9
12 13 13 12 11 10 10 11 10 10 10 10 12 12 11 9 8 8 9 9 9 8 7 7 10 11 10 10 12 13 14 14 13 15 16 17 19 19 18 15 13 13 13 12 12 12 12 10 8 7 6 5 5 6 6 7 7 8 8 8 6 6 6 6 5 6 6 8 9
11 13 14 14 12 11 11 11 11 11 11 12 13 13 12 9 9 10 10 10 10 9 8 7 11 13 13 13 13 14 14 15 16 17 18 18 19 19 17 14 13 12 12 12 12 12 12 9 8 7 6 6 6 6 7 8 8 9 9 8 7 6 6 6 7 7 7 8 9
11 13 14 14 14 13 12 11 10 11 12 14 14 13 11 8 8 8 10 10 10 10 9 8 10 13 14 14 14 14 15 15 17 18 19 18 19 18 16 14 13 12 12 11 11 11 11 9 8 8 8 7 8 8 8 8 9 9 9 7 7 7 7 7 7 8 8 8 9
11 12 13 13 14 13 12 12 10 10 11 13 13 12 10 8 6 6 7 10 11 11 10 9 10 12 14 15 15 15 15 16 16 17 17 18 18 17 16 14 13 13 12 11 11 10 9 9 9 9 9 8 8 8 8 8 9 10 9 8 8 9 9 8 9 9 9 9 10
11 11 11 12 13 13 13 12 10 10 10 12 12 12 10 8 6 6 7 10 12 12 11 10 10 11 12 13 15 15 16 16 16 16 16 17 17 16 15 14 14 13 13 12 11 10 9 9 10 11 11 10 8 8 8 9 9 10 10 10 9 10 10 11 10 9 9 10 10
11 11 11 12 13 13 13 12 10 10 10 12 12 11 10 8 7 7 7 10 12 11 10 10 10 10 11 13 14 15 15 16 16 16 16 16 15 15 14 14 14 13 13 12 11 10 10 10 11 12 12 11 9 9 9 10 10 11 11 11 11 11 11 12 12 11 10 10 11
12 12 12 12 13 12 12 12 10 10 10 12 11 11 10 9 8 8 8 9 11 11 11 11 10 10 11 13 15 15 15 15 16 17 16 15 14 14 14 14 14 13 12 11 11 11 11 11 12 12 12 12 11 11 10 11 11 12 12 13 13 13 13 13 13 12 11 11 12
13 13 13 12 12 11 11 11 10 9 10 11 11 10 10 9 9 9 9 10 11 12 12 12 11 12 13 15 16 16 15 15 16 16 15 14 13 13 13 13 13 13 12 11 11 11 12 12 12 12 13 13 13 12 12 11 12 12 13 14 14 14 14 14 13 12 12 13 13
13 13 13 12 12 11 10 10 9 9 9 9 10 10 10 9 9 10 11 12 12 12 13 14 14 14 15 17 18 17 15 14 15 15 14 13 13 13 13 13 13 12 12 12 11 11 11 12 12 12 13 13 13 13 13 12 13 13 13 14 15 15 15 15 14 13 13 13 13
14 14 13 13 12 12 11 10 9 9 9 9 10 11 10 10 11 12 13 14 13 14 15 18 17 17 18 18 18 16 15 14 14 14 13 13 13 13 13 12 12 12 12 12 12 12 12 11 11 11 12 13 13 13 13 13 13 13 14 14 14 15 15 15 14 14 14 14 14
14 14 14 13 13 12 12 11 11 11 11 12 12 12 11 12 13 13 14 16 16 17 19 21 20 20 20 20 18 16 14 14 14 13 13 12 12 12 12 12 12 12 12 12 12 12 12 12 12 11 12 12 12 13 13 13 13 14 14 14 14 14 14 14 14 14 13 14 15
13 14 14 14 13 13 12 12 12 13 13 14 13 13 14 14 15 16 16 17 18 19 21 22 21 21 21 21 18 15 13 14 14 13 13 12 12 12 12 13 12 12 12 12 13 13 13 13 13 12 12 12 12 12 12 13 13 13 14 14 14 14 14 14 13 13 13 13 14
13 14 14 13 13 13 12 11 12 13 14 15 15 16 16 17 18 18 18 19 19 20 20 20 20 20 19 18 16 14 13 12 13 12 12 12 12 12 13 13 13 12 12 13 13 13 13 13 13 13 13 12 12 12 13 13 13 13 13 13 13 13 13 13 13 12 12 12 12
13 14 14 14 13 12 12 11 11 12 14 15 17 18 18 18 18 18 19 19 18 18 18 19 19 18 18 16 15 13 12 10 11 11 11 11 11 12 12 12 12 12 12 12 13 13 13 13 13 13 13 13 13 13 13 12 13 13 13 12 13 13 13 13 12 12 12 12 12
13 14 14 14 13 12 11 10 10 11 13 15 16 17 17 17 16 16 16 16 16 16 16 17 17 17 17 15 13 12 11 10 10 10 10 10 11 11 11 11 12 12 13 13 13 13 14 14 14 14 13 13 13 13 13 13 13 13 13 13 13 13 13 12 12 12 12 12 12
13 13 14 13 13 12 11 10 10 11 13 14 15 16 15 15 14 14 14 14 14 14 14 14 15 15 16 15 13 12 11 10 10 10 10 10 10 11 11 11 12 13 13 13 13 13 14 14 14 14 14 13 14 14 13 13 13 13 13 13 13 13 13 12 12 12 12 13 13
13 13 13 12 13 12 12 11 11 12 13 14 14 14 14 14 14 13 12 12 12 12 13 12 12 13 14 14 13 12 11 11 10 10 10 10 11 11 11 11 12 12 12 12 12 12 12 12 13 13 13 13 13 13 13 13 13 13 13 13 13 13 13 13 13 13 13 13 13
13 13 13 13 14 13 12 12 12 12 13 13 12 12 13 13 13 12 11 10 10 11 11 12 12 12 12 13 12 12 12 12 12 12 12 11 11 12 11 11 11 11 10 10 11 13 13 12 11 12 12 13 13 12 12 12 13 13 13 13 13 13 13 13 13 13 12 13 12
13 14 14 15 15 14 14 14 13 13 13 12 11 11 12 12 12 11 10 9 9 10 11 12 12 12 11 12 13 13 13 12 13 13 13 13 13 12 12 11 11 10 9 10 12 14 14 14 13 12 12 12 12 12 11 11 12 12 12 12 12 11 11 11 11 11 10 9 8
15 15 16 16 16 16 15 15 14 14 13 12 11 11 11 12 11 11 10 9 9 9 10 11 12 11 11 12 13 14 14 13 13 14 14 14 14 14 13 12 11 10 9 11 12 13 13 13 12 11 9 9 10 10 10 9 10 10 10 10 9 9 8 8 8 7 7 6 5
15 16 17 17 17 17 16 16 15 15 14 13 12 11 11 12 12 12 11 10 9 9 9 10 10 10 9 10 13 14 15 14 14 14 14 14 14 14 13 12 11 10 10 10 8 7 6 4 4 4 4 5 6 7 7 7 7 7 6 6 5 4 4 5 5 4 4 4 4
15 16 17 17 17 17 17 16 16 15 15 14 13 12 12 13 13 13 12 11 10 9 8 7 8 8 8 10 12 13 14 14 13 13 12 13 13 13 13 13 12 10 8 3 2 4 5 6 6 5 3 2 3 4 5 5 5 4 2 1 5 6 6 5 6 6 6 5 5
13 14 15 17 17 17 17 17 17 16 15 14 14 14 14 14 15 15 14 12 10 9 7 6 7 8 9 11 11 12 12 13 12 12 12 13 13 14 13 13 13 8 2 9 9 9 10 11 9 7 5 4 1 2 4 4 3 2 5 8 8 8 8 8 9 8 7 6 6
12 12 13 15 16 17 17 17 17 17 16 15 15 16 16 16 17 16 15 12 10 7 6 6 8 9 10 10 10 11 11 11 11 11 12 13 13 13 13 12 11 2 10 15 13 12 11 9 7 6 5 5 4 2 0 1 3 6 8 8 7 7 8 8 8 7 7 7 7
11 10 11 13 15 16 16 17 17 16 16 16 16 17 17 18 18 16 13 10 8 7 6 7 8 9 9 9 9 9 10 11 11 11 11 11 12 11 10 8 2 7 11 12 12 11 9 7 5 5 5 6 6 6 6 7 9 9 9 9 8 8 8 7 7 7 8 8 7
11 10 10 10 12 14 15 16 16 16 16 16 17 17 17 17 16 15 12 9 8 7 7 7 8 9 9 8 8 8 7 7 5 3 3 3 4 3 2 4 7 8 8 12 11 9 6 4 4 5 5 6 7 8 10 10 10 9 9 9 9 9 9 9 8 8 9 9 7
11 11 10 10 10 12 13 14 15 15 16 16 16 16 16 16 15 14 12 10 8 7 7 7 7 7 7 6 4 2 1 4 6 8 9 8 7 7 8 8 5 7 10 12 9 6 4 3 4 6 7 7 8 10 11 11 10 9 10 10 10 10 10 10 10 10 10 9 7
12 12 11 10 10 10 11 13 14 14 15 15 15 15 15 14 14 13 12 9 8 7 7 6 5 4 3 4 6 8 9 9 10 10 9 9 9 9 9 7 6 9 13 11 8 4 2 3 6 7 8 9 9 10 11 12 11 11 11 11 11 11 11 12 12 12 11 9 8
14 13 12 11 10 10 10 11 12 13 14 15 15 15 14 13 12 11 10 8 7 7 7 5 3 4 7 9 11 11 10 10 9 9 9 9 9 9 8 7 8 10 12 11 7 3 1 4 7 8 9 9 9 10 11 11 10 11 12 12 12 13 14 14 13 12 11 10 10
14 14 13 12 11 10 10 10 11 12 13 14 14 14 14 13 11 10 9 8 8 8 7 4 5 9 11 11 11 10 10 10 10 9 9 9 9 9 9 9 10 10 11 11 7 3 2 5 8 9 10 11 10 10 10 9 9 10 11 12 13 13 13 12 12 12 13 13 13
15 15 14 13 12 11 10 10 11 11 12 13 12 12 12 12 11 9 8 8 8 7 5 5 10 11 11 11 11 11 11 11 11 11 11 10 10 11 11 11 11 11 10 11 8 3 4 7 10 12 13 13 12 11 10 9 9 10 11 11 11 11 11 9 10 11 14 16 18
15 15 14 13 12 11 11 10 10 11 11 11 10 10 9 9 9 8 7 6 4 3 6 11 12 12 11 10 10 11 13 14 15 15 14 13 13 13 13 12 11 11 11 13 11 7 5 8 13 16 17 14 12 10 9 9 11 11 11 10 10 10 10 9 9 10 13 17 21
14 14 14 14 13 12 11 11 11 10 10 9 9 9 9 8 7 5 3 3 6 10 12 14 13 11 10 9 11 13 16 17 17 16 15 14 15 15 14 12 12 12 13 15 14 11 8 8 13 17 17 14 12 10 10 10 11 11 11 9 9 9 9 9 9 9 11 14 18
13 13 14 13 13 12 11 11 10 10 9 9 9 8 7 6 4 3 5 9 12 13 13 13 13 12 12 11 14 16 18 18 16 15 14 15 14 14 13 12 13 13 14 16 17 16 14 11 11 13 14 13 12 11 10 11 12 12 11 10 9 8 8 8 9 9 10 11 12
Wind_Direction
166 167 167 165 165 167 169 168 164 165 166 164 162 165 169 172 171 169 168 164 164 166 167 164 164 169 173 171 166 162 157 154 153 153 154 160 164 165 167 171 176 185 194 202 203 203 202 198 193 194 199 204 201 196 191 186 183 183 186 189 191 190 189 189 193 196 197 199 199
163 162 160 159 161 163 164 162 162 165 166 162 159 164 171 176 174 171 166 162 162 163 164 161 163 169 174 172 165 160 156 155 154 154 156 163 172 178 182 187 191 193 196 199 197 196 195 191 189 191 197 204 204 200 195 189 182 182 186 192 193 191 190 193 197 197 197 200 200
159 157 154 155 159 161 162 161 163 164 163 155 152 158 169 179 178 173 165 159 157 158 159 159 162 168 172 169 163 158 155 156 156 156 157 163 174 182 191 200 204 202 199 195 193 191 190 187 189 191 193 195 197 196 193 189 180 181 186 193 194 192 192 197 199 199 198 202 202
158 155 153 154 159 161 160 158 161 161 157 147 145 148 157 172 180 173 162 153 152 152 154 156 160 165 167 163 159 156 154 154 156 157 159 163 174 183 192 202 207 206 201 195 192 189 188 187 191 194 193 190 191 191 190 185 179 181 188 195 194 193 194 199 199 199 200 204 204
160 159 157 155 157 157 156 153 155 154 151 144 142 143 145 152 168 165 156 147 146 146 148 152 155 157 157 153 152 150 149 150 154 158 162 169 178 186 194 202 205 203 197 193 191 188 186 187 196 200 197 191 191 191 189 181 178 181 187 193 196 196 196 199 199 199 200 205 207
163 162 160 156 154 152 150 149 151 150 148 145 143 142 141 143 158 164 155 142 136 135 139 147 152 152 148 146 146 145 146 149 154 161 169 176 185 193 199 204 200 196 192 191 189 187 186 188 199 204 202 194 195 194 188 177 178 182 187 190 196 197 197 199 199 198 199 204 208
166 165 164 162 157 152 148 147 147 148 148 146 145 143 142 146 161 166 158 141 129 126 131 144 155 158 156 151 147 146 148 152 159 168 176 183 191 199 204 204 196 191 189 189 187 186 187 191 197 200 200 195 197 195 189 181 181 186 191 194 196 196 196 200 199 196 197 203 207
170 168 168 167 163 156 150 147 147 148 149 149 147 146 146 150 163 167 161 146 135 130 132 142 156 162 165 161 154 151 152 158 167 177 184 190 197 203 206 203 195 190 188 187 186 186 188 191 195 196 195 194 197 196 191 184 184 190 197 200 199 198 199 202 200 198 198 201 206
171 171 170 169 167 161 154 150 149 149 149 150 148 148 149 154 163 167 164 154 145 138 135 140 153 162 168 169 160 157 159 166 177 184 190 195 201 205 206 201 195 191 189 187 186 186 187 189 194 196 195 194 197 197 194 187 189 194 201 205 203 203 203 205 203 202 201 202 206
168 169 169 168 167 163 157 153 149 147 145 146 145 146 148 153 162 167 165 157 149 143 139 141 151 163 170 173 166 165 168 177 185 190 194 197 202 205 205 201 196 193 191 189 187 187 187 189 195 199 200 198 198 197 194 189 192 198 204 209 207 207 207 209 208 206 206 207 210
160 162 164 164 164 161 157 154 149 144 141 141 142 143 145 150 157 160 156 149 146 145 145 144 153 164 172 175 172 173 177 186 191 194 197 201 204 204 203 199 196 194 193 191 189 188 189 193 198 201 202 202 200 198 196 192 195 201 207 212 211 211 211 213 212 211 211 213 214
152 154 155 156 158 157 156 154 149 144 141 140 141 143 146 151 152 146 138 138 141 144 146 148 158 169 175 179 178 180 185 192 196 200 202 204 204 203 201 198 196 195 194 193 190 190 193 197 200 202 204 204 202 200 198 195 197 203 209 214 213 214 216 217 215 215 216 217 218
149 148 149 150 153 154 154 152 149 145 143 143 145 146 148 151 149 142 135 135 139 143 148 154 164 174 181 185 185 187 191 196 201 204 205 205 202 200 198 197 196 195 195 194 193 193 195 199 201 202 204 205 205 204 201 197 199 203 209 213 215 217 219 219 218 218 219 220 222
151 149 148 148 150 152 152 150 148 147 146 146 147 148 148 150 150 148 144 142 145 148 152 159 169 179 187 192 194 196 198 201 204 206 206 203 199 197 196 196 196 195 195 196 195 195 197 199 201 203 204 205 207 206 204 200 201 205 208 212 215 217 220 221 219 218 219 221 224
155 153 151 148 150 150 150 149 148 147 147 147 148 148 149 150 154 156 156 155 155 156 159 164 173 182 189 196 201 203 205 205 206 206 204 200 197 196 196 197 196 196 195 196 197 198 199 201 202 203 205 206 208 208 207 205 206 208 210 212 215 217 219 221 220 219 218 220 224
158 156 154 151 151 150 149 149 148 148 148 149 149 150 151 155 160 164 166 165 164 165 167 171 177 183 190 197 204 207 208 207 206 205 202 198 196 196 197 198 197 196 196 196 198 200 203 204 204 205 206 207 209 210 210 209 209 211 213 215 216 218 219 220 220 219 219 220 223
162 160 158 156 153 151 149 149 149 151 152 153 155 156 158 162 167 171 172 172 172 173 175 178 181 185 190 196 203 207 208 206 205 202 200 197 195 196 197 199 198 198 197 198 199 202 205 207 207 208 208 210 211 212 212 212 213 214 216 217 219 220 221 221 220 220 221 222 224
166 164 162 160 157 154 152 151 151 154 157 160 161 163 166 169 172 175 177 177 178 180 181 184 185 187 190 195 200 204 206 204 203 200 198 196 194 194 196 199 200 199 199 200 202 204 206 208 209 210 211 213 214 215 215 215 216 217 219 220 222 223 223 224 223 223 223 224 227
168 167 166 164 161 158 155 154 155 158 161 165 166 169 172 176 177 178 179 181 183 185 186 187 188 189 191 193 197 200 202 203 201 199 197 195 193 194 195 198 200 201 202 203 205 206 208 209 210 211 213 215 217 218 218 219 220 221 222 223 224 226 226 227 226 226 227 228 230
170 169 169 168 166 162 160 158 160 162 166 168 170 173 176 179 181 181 182 184 187 189 189 189 190 191 192 193 195 198 201 202 200 199 197 196 194 195 196 198 200 202 203 205 207 209 210 211 212 213 214 216 218 219 221 221 223 224 225 226 227 228 229 229 229 229 230 231 233
172 172 171 170 168 166 164 162 164 166 169 171 173 175 177 181 182 183 184 187 190 192 192 191 192 193 193 194 195 197 199 201 199 199 199 199 199 198 198 199 201 203 205 207 209 211 212 213 214 214 216 217 219 220 221 222 224 226 227 228 229 229 230 230 230 230 231 232 233
174 173 172 171 170 168 167 165 167 169 172 173 175 176 178 181 182 183 185 189 193 194 195 195 195 196 197 197 197 197 198 200 200 201 202 204 204 204 203 203 204 206 208 209 211 212 213 215 216 216 216 218 219 221 222 223 225 227 228 230 231 231 231 230 230 230 230 231 233
173 173 172 171 171 170 169 169 171 173 175 176 177 178 179 179 180 182 185 189 194 197 199 200 201 202 202 203 201 201 201 202 203 205 206 208 209 209 209 208 209 210 211 212 212 213 214 216 217 217 217 218 220 221 222 223 225 227 229 230 232 232 233 232 231 230 230 231 232
173 173 173 172 171 172 173 174 176 178 180 180 180 180 180 180 180 181 183 188 193 198 201 204 205 206 207 209 208 207 206 205 207 209 211 212 213 213 213 213 213 214 214 215 213 213 213 215 217 218 218 218 219 221 221 222 224 226 229 231 232 233 234 234 232 232 232 232 233
173 174 175 174 174 175 177 180 183 185 186 186 186 186 186 185 185 185 185 187 191 196 201 205 206 207 209 211 212 211 210 210 211 212 214 215 216 215 216 216 217 217 217 217 215 213 212 213 214 216 218 219 220 221 222 222 223 225 227 229 231 233 235 236 235 234 234 234 235
174 176 178 178 177 179 182 186 188 190 192 192 192 194 195 195 196 195 194 193 194 197 200 204 205 206 208 211 212 213 213 213 214 214 215 216 217 217 217 218 219 219 219 218 216 215 214 213 213 215 217 219 220 222 222 223 223 224 226 229 231 233 236 240 242 243 243 244 246
176 179 180 181 182 184 187 190 192 194 195 196 197 199 202 204 207 208 208 206 202 201 202 204 205 206 207 210 211 212 213 214 215 215 216 216 216 216 217 219 219 220 220 218 218 218 217 217 219 222 226 230 228 226 225 226 225 226 227 231 235 239 244 249 255 260 264 270 271
178 180 181 183 185 188 191 192 194 196 198 199 199 201 204 209 215 218 218 216 212 208 205 206 205 205 206 209 211 212 213 213 214 215 216 216 216 216 217 219 220 221 220 218 218 218 220 228 243 259 269 268 255 246 239 235 232 231 233 238 258 277 286 283 286 296 306 315 316
179 178 179 182 186 189 192 194 196 198 199 200 201 202 205 211 218 222 223 222 219 214 209 207 205 204 205 208 211 212 212 213 213 214 215 216 217 217 218 220 221 220 218 204 105 81 69 50 36 27 14 335 279 261 254 249 247 250 266 16 30 19 11 16 27 26 20 9 3
180 178 178 180 184 187 191 195 197 199 200 201 201 202 205 211 218 222 224 224 222 218 211 203 201 201 203 205 208 209 211 212 212 213 213 215 217 218 219 220 220 212 130 54 55 62 65 61 55 53 55 66 56 260 259 261 270 344 40 47 44 40 38 43 41 34 25 17 13
185 181 179 179 182 186 190 193 196 198 199 200 201 202 205 209 215 219 222 224 223 219 210 199 197 197 199 200 203 205 207 209 211 212 213 215 217 218 219 220 220 170 63 57 56 58 63 68 69 72 80 92 95 96 69 317 38 57 64 65 55 50 49 52 48 41 33 30 26
191 188 184 180 182 185 188 191 193 195 197 199 201 202 205 208 212 216 219 221 221 218 210 200 197 196 195 195 198 201 204 206 208 210 213 215 218 219 220 225 123 69 62 60 59 60 63 70 77 89 99 105 102 96 88 80 77 77 79 80 70 62 58 57 53 46 41 38 34
196 195 192 187 185 185 186 188 190 193 195 197 200 202 204 207 210 213 216 219 219 216 211 204 199 197 196 194 196 197 200 202 209 226 258 276 251 230 184 78 62 59 57 56 56 57 62 75 95 107 109 101 92 87 85 85 87 88 85 77 70 65 63 61 57 52 47 41 37
198 199 198 195 190 187 185 186 188 190 193 195 198 201 203 205 208 211 214 216 216 214 210 205 202 199 196 191 189 175 103 65 51 40 30 21 33 55 66 64 57 39 33 36 41 47 61 99 126 127 116 95 85 82 82 85 86 86 83 78 71 65 62 59 55 49 43 36 32
198 199 200 200 196 191 188 186 187 189 191 194 197 199 201 204 207 209 212 213 213 212 210 207 201 189 152 87 64 55 49 47 45 41 37 37 48 57 60 55 50 33 24 17 19 27 67 137 149 139 121 96 89 86 84 84 83 83 81 80 72 64 57 54 51 46 39 32 28
196 198 199 200 199 196 192 189 188 189 191 194 196 198 201 204 207 209 211 210 210 210 209 202 169 96 71 63 58 55 55 56 55 50 45 43 51 56 56 46 38 27 17 3 2 10 95 159 160 143 118 93 90 88 87 86 84 81 79 76 70 63 56 51 49 46 41 35 32
196 197 198 199 200 198 195 192 190 191 192 195 196 198 200 203 207 209 209 207 208 208 203 175 95 76 73 75 72 67 61 58 57 55 51 47 49 52 50 43 31 19 7 357 359 16 132 165 159 134 108 93 93 93 93 91 88 82 75 69 66 63 61 57 53 49 46 42 40
196 196 197 199 200 199 197 194 193 193 195 196 197 198 200 202 206 207 207 205 206 203 182 103 82 80 83 85 84 77 68 58 54 50 46 44 45 46 45 42 30 17 5 2 12 44 135 164 146 124 107 103 104 104 102 98 92 86 80 75 70 66 63 61 57 53 50 47 46
195 196 197 199 200 200 198 197 196 195 196 196 197 198 200 201 205 205 204 202 189 141 96 85 86 88 89 90 86 76 65 55 49 44 41 40 41 43 43 43 33 22 15 15 28 50 109 147 131 119 111 111 112 111 107 101 95 91 88 85 81 74 68 63 60 57 53 50 49
195 196 197 199 200 201 200 199 198 197 196 196 196 197 198 199 203 200 179 99 81 81 84 88 90 88 84 80 74 66 60 55 49 46 44 44 45 45 44 44 38 31 26 26 35 46 69 104 114 115 114 114 114 112 108 103 99 96 93 91 88 82 76 69 65 62 57 53 50
195 196 197 199 200 202 202 202 201 199 197 195 198 200 200 195 181 126 85 82 86 89 91 91 86 80 74 69 67 65 63 60 55 51 49 49 48 47 45 44 42 38 35 34 39 46 54 64 83 99 109 113 113 111 107 105 102 100 97 95 93 89 85 78 71 66 61 57 53